Location: Newark
(46.7636°N, 1.8358°W)
Time: 05:40:05
(UTC+00:00)

Vanguard 2 Rocket - Pass Details

Date: 22 October 2019
Orbit: 554 x 3326 km, 32.9° (Epoch: 13 November)

Event Time Altitude Azimuth Distance (km) Brightness Sun altitude
Rises 06:02:16 0° 186° (S) 5,740 11.0 -6.2°
Reaches altitude 10° 06:07:33 10° 169° (S) 5,210 11.1 -5.3°
Maximum altitude 06:17:08 19° 132° (SE) 5,141 11.7 -3.7°
Drops below altitude 10° 06:28:20 10° 97° (E) 6,250 13.2 -1.8°
Sets 06:35:37 0° 83° (E) 7,308 13.0 -0.6°
